Weather History for Port Angeles, WA

Change the Weather History Date:

Friday, December 27, 2013

  Actual Average Record
Temperature  
Mean Temperature 4 °C -  
Max Temperature 10 °C 6 °C 15 °C (1980)
Min Temperature -1 °C 0 °C -7 °C (1971)
Degree Days  
Heating Degree Days 25    
Moisture  
Dew Point 3 °C    
Average Humidity 92    
Maximum Humidity 100    
Minimum Humidity 77    
Precipitation  
Precipitation 3.81 mm - - ()
Sea Level Pressure  
Sea Level Pressure 1022 hPa    
Wind  
Wind Speed 5 km/h (WSW)    
Max Wind Speed 27 km/h    
Max Gust Speed -    
Visibility 11 kilometers    
Events Fog , Rain    
Averages and records for this station are not official NWS values.
T = Trace of Precipitation, MM = Missing Value Source: NWS Daily Summary

Daily Weather History Graph

Daily Weather History Graph

Search for Another Location

Airport:

Trip Planner

Search our weather history database for the weather conditions in past years. The results will help you decide how hot, cold, wet, or windy it might be!

Date:

Astronomy

Dec. 27, 2013 Rise Set
Actual Time 8:03 AM PST 4:26 PM PST
Civil Twilight 7:27 AM PST 5:03 PM PST
Nautical Twilight 6:47 AM PST 5:43 PM PST
Astronomical Twilight 6:09 AM PST 6:20 PM PST
Moon 2:26 AM PST (12/27) 12:54 PM PST (12/27)
Length of Visible Light 9h 35m
Length of Day
8h 22m
Waning Crescent, 27% of the Moon is Illuminated
Dec 27
Waning Crescent
Jan 1
New
Jan 7
First Quarter
Jan 15
Full
Jan 23
Last Quarter

Hourly Weather History & Observations

Time (PST) Temp. Windchill Dew Point Humidity Pressure Visibility Wind Dir Wind Speed Gust Speed Precip Events Conditions
12:35 AM -0.6 °C - -1.1 °C 96% 1022.2 hPa 14.5 km Calm Calm - N/A   Mostly Cloudy
12:53 AM 0.6 °C - -0.6 °C 92% 1022.6 hPa 14.5 km Calm Calm - N/A   Overcast
1:40 AM 2.2 °C 0.0 °C 1.1 °C 93% 1021.6 hPa 2.4 km South 7.4 km/h / 2.1 m/s - N/A   Overcast
1:50 AM 1.0 °C - 1.0 °C 100% 1021.9 hPa 1.2 km Calm Calm - N/A   Overcast
1:53 AM 1.7 °C - 0.6 °C 92% 1022.2 hPa 0.8 km Calm Calm - N/A Fog Fog
2:02 AM 2.2 °C 0.7 °C 1.7 °C 97% 1021.9 hPa 0.4 km WSW 5.6 km/h / 1.5 m/s - N/A Fog Fog
2:15 AM 1.7 °C -1.1 °C 1.1 °C 96% 1022.2 hPa 0.4 km WSW 9.3 km/h / 2.6 m/s - N/A Fog Fog
2:26 AM 2.8 °C 0.2 °C 1.7 °C 93% 1022.2 hPa 1.6 km SSW 9.3 km/h / 2.6 m/s - N/A   Overcast
2:30 AM 2.2 °C 0.0 °C 1.7 °C 97% 1022.2 hPa 4.8 km SW 7.4 km/h / 2.1 m/s - N/A   Overcast
2:53 AM 2.8 °C 0.7 °C 2.2 °C 96% 1022.0 hPa 9.7 km SSE 7.4 km/h / 2.1 m/s - N/A   Mostly Cloudy
3:01 AM 1.7 °C -0.5 °C 1.1 °C 96% 1021.6 hPa 2.8 km ESE 7.4 km/h / 2.1 m/s - N/A   Mostly Cloudy
3:08 AM 2.2 °C - 1.7 °C 97% 1021.2 hPa 2.4 km Calm Calm - N/A   Mostly Cloudy
3:18 AM 2.8 °C - 2.2 °C 96% 1021.2 hPa 3.2 km Calm Calm - N/A   Mostly Cloudy
3:39 AM 2.2 °C 0.7 °C 1.7 °C 97% 1021.2 hPa 2.4 km SW 5.6 km/h / 1.5 m/s - N/A   Mostly Cloudy
3:46 AM 2.2 °C - 1.7 °C 97% 1020.9 hPa 4.8 km Calm Calm - N/A   Mostly Cloudy
3:53 AM 1.7 °C 0.1 °C 1.7 °C 100% 1021.2 hPa 6.4 km SSW 5.6 km/h / 1.5 m/s - N/A   Mostly Cloudy
4:13 AM 1.7 °C 0.1 °C 1.1 °C 96% 1020.5 hPa 6.4 km SE 5.6 km/h / 1.5 m/s - N/A   Overcast
4:23 AM 2.2 °C 0.7 °C 1.1 °C 93% 1020.5 hPa 6.4 km Variable 5.6 km/h / 1.5 m/s - N/A   Mostly Cloudy
4:37 AM 2.2 °C - 1.7 °C 97% 1020.5 hPa 6.4 km Calm Calm - N/A   Overcast
4:53 AM 2.2 °C 0.7 °C 1.7 °C 97% 1020.8 hPa 16.1 km WSW 5.6 km/h / 1.5 m/s - N/A   Overcast
5:10 AM 2.8 °C 1.4 °C 2.2 °C 96% 1020.2 hPa 16.1 km West 5.6 km/h / 1.5 m/s - N/A   Overcast
5:21 AM 2.8 °C 0.7 °C 2.2 °C 96% 1020.2 hPa 16.1 km SW 7.4 km/h / 2.1 m/s - N/A   Overcast
5:53 AM 2.2 °C - 1.7 °C 97% 1019.9 hPa 8.0 km Calm Calm - N/A   Overcast
6:48 AM 3.0 °C - 2.0 °C 93% 1019.2 hPa 16.1 km Calm Calm - N/A   Overcast
6:53 AM 3.3 °C 0.8 °C 2.2 °C 93% 1019.6 hPa 16.1 km West 9.3 km/h / 2.6 m/s - N/A   Mostly Cloudy
7:53 AM 3.3 °C 1.3 °C 2.2 °C 93% 1019.2 hPa 16.1 km WSW 7.4 km/h / 2.1 m/s - N/A   Overcast
8:53 AM 4.4 °C - 3.9 °C 97% 1018.8 hPa 16.1 km Calm Calm - 0.0 mm Rain Light Rain
9:02 AM 4.4 °C - 3.9 °C 97% 1018.8 hPa 16.1 km Calm Calm - 0.0 mm Rain Light Rain
9:11 AM 4.4 °C 2.6 °C 3.3 °C 93% 1018.8 hPa 16.1 km West 7.4 km/h / 2.1 m/s - 0.0 mm Rain Light Rain
9:20 AM 5.0 °C 3.3 °C 3.9 °C 93% 1018.8 hPa 16.1 km SW 7.4 km/h / 2.1 m/s - 0.0 mm   Overcast
9:46 AM 5.6 °C - 4.4 °C 92% 1018.5 hPa 16.1 km Calm Calm - 0.0 mm Rain Light Rain
9:53 AM 5.6 °C - 4.4 °C 92% 1019.1 hPa 16.1 km Calm Calm - 0.0 mm Rain Light Rain
10:53 AM 6.1 °C - 5.0 °C 93% 1020.3 hPa 4.8 km Calm Calm - 3.0 mm Rain Light Rain
11:53 AM 7.2 °C 5.1 °C 6.1 °C 93% 1020.9 hPa 16.1 km WNW 11.1 km/h / 3.1 m/s - 0.8 mm   Overcast
12:53 PM 8.9 °C - 6.7 °C 86% 1020.8 hPa 16.1 km WNW 16.7 km/h / 4.6 m/s - N/A   Clear
1:53 PM 10.0 °C - 6.1 °C 77% 1021.1 hPa 16.1 km NW 22.2 km/h / 6.2 m/s - N/A   Clear
2:53 PM 9.4 °C - 5.6 °C 77% 1022.6 hPa 16.1 km NW 16.7 km/h / 4.6 m/s - N/A   Clear
3:53 PM 7.8 °C 5.8 °C 4.4 °C 79% 1022.9 hPa 16.1 km WSW 11.1 km/h / 3.1 m/s - N/A   Clear
4:53 PM 7.8 °C 5.0 °C 4.4 °C 79% 1023.8 hPa 16.1 km West 16.7 km/h / 4.6 m/s - N/A   Clear
5:53 PM 6.7 °C 4.9 °C 4.4 °C 85% 1024.3 hPa 16.1 km NW 9.3 km/h / 2.6 m/s - N/A   Clear
6:53 PM 7.2 °C 3.1 °C 4.4 °C 82% 1025.4 hPa 16.1 km West 27.8 km/h / 7.7 m/s - N/A   Clear
7:53 PM 6.1 °C 2.9 °C 3.9 °C 86% 1025.9 hPa 16.1 km West 16.7 km/h / 4.6 m/s - N/A   Clear
8:53 PM 5.6 °C 2.0 °C 3.3 °C 85% 1025.9 hPa 16.1 km West 18.5 km/h / 5.1 m/s - N/A   Clear
9:53 PM 5.6 °C 2.0 °C 2.8 °C 82% 1026.7 hPa 16.1 km West 18.5 km/h / 5.1 m/s - N/A   Clear
10:53 PM 5.0 °C 2.1 °C 2.2 °C 82% 1027.3 hPa 16.1 km WNW 13.0 km/h / 3.6 m/s - N/A   Clear
11:53 PM 3.3 °C 1.3 °C 1.7 °C 89% 1028.3 hPa 16.1 km SW 7.4 km/h / 2.1 m/s - N/A   Partly Cloudy